This demonstration page uses our WeatherBlox Daily Observations layout. Learn more.

40.92945, -100.16068

Hourly Observations for January 22, 2017

Temp ( °F °C ) Dew Point ( °F °C ) Humidity (%) Winds ( mph kmh ) Pressure ( in mb ) Visibility ( mi km ) Precip ( " mm )
12:15 am 00:15 Clear 30 -0.9 28 -2.1 92 92 NNW 3 6 29.74 1007 10 16.0934 0 0
12:35 am 00:35 Clear 30 -0.9 28 -2.2 91 91 NW 5 7 29.74 1007 10 16.0934 0 0
12:55 am 00:55 Clear 31 -0.7 28 -2 91 91 W 7 11 29.74 1007 10 16.0934 0 0
1:15 am 01:15 Clear 31 -0.8 28 -2 92 92 WNW 6 9 29.77 1008 10 16.0934 0 0
1:35 am 01:35 Clear 31 -0.5 29 -1.9 90 90 WNW 7 11 29.77 1008 10 16.0934 0 0
1:55 am 01:55 Clear 31 -0.7 28 -2 91 91 WNW 7 11 29.77 1008 10 16.0934 0 0
2:15 am 02:15 Clear 31 -0.8 28 -2.1 91 91 WNW 8 13 29.77 1008 10 16.0934 0 0
2:35 am 02:35 Clear 30 -1 28 -2.2 92 92 WNW 8 13 29.77 1008 10 16.0934 0 0
2:55 am 02:55 Clear 30 -1 28 -2.3 91 91 WNW 8 13 29.8 1009 10 16.0934 0 0
3:15 am 03:15 Clear 30 -1.2 28 -2.5 91 91 WNW 6 9 29.8 1009 10 16.0934 0 0
3:35 am 03:35 Clear 30 -1.3 27 -2.6 91 91 WNW 7 11 29.8 1009 10 16.0934 0 0
3:55 am 03:55 Clear 29 -1.6 27 -2.9 91 91 WNW 8 13 29.8 1009 10 16.0934 0 0
4:15 am 04:15 Clear 29 -1.7 27 -2.9 92 92 WNW 7 11 29.8 1009 10 16.0934 0 0
4:35 am 04:35 Clear 29 -1.6 27 -2.8 92 92 WNW 7 11 29.8 1009 10 16.0934 0 0
4:55 am 04:55 Clear 29 -1.7 27 -3 91 91 WNW 7 11 29.8 1009 10 16.0934 0 0
5:15 am 05:15 Clear 29 -1.8 27 -3 92 92 W 7 11 29.8 1009 10 16.0934 0 0
5:35 am 05:35 Clear 29 -1.8 27 -3 92 92 W 8 13 29.83 1010 10 16.0934 0 0
5:55 am 05:55 Clear 29 -1.8 26 -3.1 91 91 WNW 8 13 29.83 1010 10 16.0934 0 0
6:15 am 06:15 Clear 28 -2 26 -3.2 92 92 WNW 7 11 29.85 1011 10 16.0934 0 0
6:35 am 06:35 Clear 28 -2 26 -3.2 92 92 WNW 8 13 29.85 1011 10 16.0934 0 0
6:55 am 06:55 Clear 28 -2 26 -3.2 92 92 WNW 8 13 29.88 1012 10 16.0934 0 0
7:15 am 07:15 Clear 29 -1.9 26 -3.2 91 91 WNW 9 15 29.88 1012 10 16.0934 0 0
7:35 am 07:35 Clear 28 -2.1 26 -3.4 91 91 WNW 7 11 29.88 1012 10 16.0934 0 0
7:55 am 07:55 Clear 28 -2 26 -3.3 91 91 WNW 8 13 29.88 1012 10 16.0934 0 0
8:15 am 08:15 Sunny 28 -2.1 26 -3.6 90 90 W 7 11 29.91 1013 10 16.0934 0 0
8:35 am 08:35 Sunny 29 -1.8 26 -3.5 88 88 WNW 9 15 29.91 1013 10 16.0934 0 0
8:55 am 08:55 Sunny 30 -1.3 27 -3 88 88 WNW 9 15 29.94 1014 10 16.0934 0 0
9:15 am 09:15 Sunny 31 -0.5 28 -2.4 87 87 WNW 14 22 29.91 1013 10 16.0934 0 0
9:35 am 09:35 Sunny 32 -0.1 28 -2.2 86 86 WNW 12 19 29.91 1013 10 16.0934 0 0
9:55 am 09:55 Sunny 33 0.4 28 -2 84 84 WNW 13 20 29.94 1014 10 16.0934 0 0
10:15 am 10:15 Sunny 33 0.5 29 -1.6 86 86 WNW 12 19 29.94 1014 10 16.0934 0 0
10:35 am 10:35 Sunny 35 1.7 30 -1 82 82 NW 13 20 29.94 1014 10 16.0934 0 0
10:55 am 10:55 Sunny 37 2.6 31 -0.5 80 80 WNW 12 19 29.94 1014 10 16.0934 0 0
11:15 am 11:15 Sunny 38 3.2 31 -0.4 78 78 NW 10 17 29.94 1014 10 16.0934 0 0
11:35 am 11:35 Sunny 40 4.6 32 0.1 73 73 WNW 10 17 29.94 1014 10 16.0934 0 0
11:55 am 11:55 Sunny 43 5.9 32 0.2 67 67 WNW 12 19 29.88 1012 10 16.0934 0 0
12:15 pm 12:15 Sunny 44 6.5 32 0 64 64 WNW 13 20 29.91 1013 10 16.0934 0 0
12:35 pm 12:35 Sunny 45 7.1 32 0.1 61 61 NW 13 20 29.88 1012 10 16.0934 0 0
12:55 pm 12:55 Sunny 46 8 32 0 57 57 NW 12 19 29.88 1012 10 16.0934 0 0
1:15 pm 13:15 Sunny 47 8.2 30 -1.1 52 52 NNW 13 20 29.83 1010 10 16.0934 0 0
1:35 pm 13:35 Sunny 47 8.5 30 -0.9 52 52 NW 12 19 29.83 1010 10 16.0934 0 0
1:55 pm 13:55 Sunny 48 8.8 31 -0.8 51 51 NW 12 19 29.83 1010 10 16.0934 0 0
2:15 pm 14:15 Sunny 48 9.1 30 -1.3 48 48 NW 12 19 29.83 1010 10 16.0934 0 0
2:35 pm 14:35 Sunny 49 9.5 29 -1.6 46 46 NW 12 19 29.83 1010 10 16.0934 0 0
2:55 pm 14:55 Sunny 49 9.5 29 -1.5 47 47 WNW 10 17 29.83 1010 10 16.0934 0 0
3:15 pm 15:15 Sunny 50 9.8 29 -1.6 45 45 NW 10 17 29.83 1010 10 16.0934 0 0
3:35 pm 15:35 Sunny 50 9.8 29 -1.5 46 46 WNW 9 15 29.83 1010 10 16.0934 0 0
3:55 pm 15:55 Sunny 50 9.9 29 -1.6 45 45 NW 8 13 29.83 1010 10 16.0934 0 0
4:15 pm 16:15 Sunny 50 10 29 -1.7 44 44 WNW 8 13 29.85 1011 10 16.0934 0 0
4:35 pm 16:35 Sunny 49 9.5 31 -0.3 51 51 W 9 15 29.85 1011 10 16.0934 0 0
4:55 pm 16:55 Sunny 48 8.7 31 -0.3 54 54 WNW 8 13 29.85 1011 10 16.0934 0 0
5:15 pm 17:15 Sunny 45 7.2 32 0 61 61 W 5 7 29.88 1012 10 16.0934 0 0
5:35 pm 17:35 Sunny 42 5.5 31 -0.3 67 67 W 7 11 29.88 1012 10 16.0934 0 0
5:55 pm 17:55 Clear 40 4.2 30 -1 69 69 W 7 11 29.91 1013 10 16.0934 0 0
6:15 pm 18:15 Clear 38 3.1 30 -1.2 74 74 W 8 13 29.94 1014 10 16.0934 0 0
6:35 pm 18:35 Clear 36 2 29 -1.7 77 77 W 6 9 29.97 1015 10 16.0934 0 0
6:55 pm 18:55 Clear 36 2 29 -1.6 77 77 W 7 11 29.97 1015 10 16.0934 0 0
7:15 pm 19:15 Clear 34 1 28 -2.3 79 79 WNW 7 11 29.97 1015 10 16.0934 0 0
7:35 pm 19:35 Clear 33 0.3 27 -2.7 81 81 NW 7 11 29.97 1015 10 16.0934 0 0
7:55 pm 19:55 Clear 30 -1.1 25 -3.7 83 83 NW 5 7 30 1016 10 16.0934 0 0
8:15 pm 20:15 Clear 31 -0.7 26 -3.2 83 83 WNW 3 6 30 1016 10 16.0934 0 0
8:35 pm 20:35 Clear 31 -0.7 26 -3.2 83 83 WNW 7 11 30.03 1017 10 16.0934 0 0
8:55 pm 20:55 Clear 30 -1 26 -3.4 84 84 W 8 13 30.03 1017 10 16.0934 0 0
9:15 pm 21:15 Clear 31 -0.6 26 -3.3 82 82 W 5 7 30.03 1017 10 16.0934 0 0
9:35 pm 21:35 Clear 29 -1.8 25 -3.9 86 86 W 5 7 30.03 1017 10 16.0934 0 0
9:55 pm 21:55 Clear 28 -2.1 25 -4 87 87 W 6 9 30.03 1017 10 16.0934 0 0
10:15 pm 22:15 Clear 28 -2.2 24 -4.2 86 86 WNW 6 9 30.03 1017 10 16.0934 0 0
10:35 pm 22:35 Clear 27 -2.6 24 -4.5 87 87 WNW 6 9 30.03 1017 10 16.0934 0 0
10:55 pm 22:55 Clear 27 -2.7 24 -4.4 88 88 WNW 7 11 30.03 1017 10 16.0934 0 0
11:15 pm 23:15 Clear 27 -2.7 24 -4.5 88 88 WNW 5 7 30.03 1017 10 16.0934 0 0
11:35 pm 23:35 Clear 27 -3 24 -4.7 88 88 W 3 6 30.03 1017 10 16.0934 0 0
11:55 pm 23:55 Clear 27 -2.9 24 -4.6 88 88 W 3 6 30.03 1017 10 16.0934 0 0

Powered by AerisWeather